Wind_Speed
16 16 16 15 14 14 14 13 14 14 14 14 13 12 12 12 12 12 13 12 11 12 12 11 11 11 11 12 11 12 12 13 12 12 11 10 8 7 8 7 11 14 12 12 12 12 12 12 13 13 14 12 9 5 2 3 4 3 5 7 6 7 7 7 7 9 7 2 8 11 12 12 17 20 20 20 18 17 18 15 14 14 15 17 20 24 26 27
16 16 16 15 15 15 14 14 14 14 14 13 13 13 12 12 11 11 12 12 12 12 11 12 12 11 11 12 12 12 12 13 13 12 11 9 9 9 9 8 10 13 12 10 9 9 10 10 12 12 12 11 8 4 3 6 9 6 7 9 6 5 7 8 6 8 7 3 8 11 11 11 15 18 17 17 16 15 17 17 16 18 20 20 22 25 26 28
16 16 15 15 15 15 15 14 14 14 14 13 13 13 12 12 12 11 11 11 12 12 11 11 12 12 11 11 12 12 12 13 12 11 11 10 10 10 9 8 7 10 12 11 9 9 10 12 12 13 12 10 8 4 3 7 12 11 11 9 6 5 5 8 10 10 8 1 7 10 10 10 12 14 15 15 14 15 16 16 17 19 21 21 23 26 27 28
16 16 15 15 14 14 14 14 14 14 14 13 13 13 12 12 12 12 12 11 12 12 12 11 11 12 12 11 11 11 12 13 10 9 11 11 11 11 10 8 7 8 11 14 12 11 14 15 12 12 12 9 8 7 8 10 11 12 12 8 8 8 7 9 11 9 7 4 4 9 9 9 12 14 14 14 16 17 16 14 14 15 19 23 24 26 28 29
15 16 16 15 15 14 14 14 14 14 14 13 13 12 12 12 12 12 12 12 12 12 12 11 11 11 12 12 10 10 11 11 7 8 11 11 11 12 10 9 8 9 11 16 15 14 16 15 11 9 11 10 10 11 12 11 11 13 14 11 11 10 8 11 12 7 5 6 2 10 10 11 13 14 12 13 17 17 17 15 12 12 15 22 24 25 28 29
14 15 16 16 15 14 14 14 14 14 13 13 13 12 11 11 11 11 11 11 12 12 12 11 11 11 11 11 10 10 10 9 7 6 8 11 12 11 10 10 9 9 12 16 17 15 16 16 15 11 11 13 14 13 11 9 10 13 15 15 14 11 7 11 13 7 4 7 4 8 9 11 12 12 11 12 12 14 15 14 12 12 14 19 23 24 27 27
14 14 15 15 15 14 14 13 13 13 13 13 12 12 11 11 11 11 11 10 11 12 11 11 11 11 10 10 10 9 9 13 13 5 5 9 10 11 10 10 10 11 11 13 17 16 14 16 20 16 13 12 14 13 11 12 13 14 15 13 11 12 9 11 13 8 3 4 4 3 6 9 12 12 12 11 12 12 12 11 13 14 14 18 23 25 27 26
14 14 14 14 14 13 13 13 13 12 12 12 12 11 10 11 11 10 10 10 10 10 11 11 11 11 10 10 9 9 11 16 17 9 6 7 7 8 10 10 11 11 9 10 15 15 15 16 19 17 15 10 10 9 8 11 13 17 19 12 10 13 12 13 13 8 4 4 2 1 6 8 12 11 11 13 12 12 11 11 15 17 16 19 22 24 26 25
16 15 15 14 13 12 11 12 12 12 12 11 11 10 10 10 10 10 10 10 9 9 9 10 10 10 10 10 8 10 13 15 16 11 10 9 7 7 8 10 11 10 9 10 14 16 17 17 16 16 15 8 6 6 6 9 11 14 15 13 14 15 12 12 13 9 5 3 2 1 5 8 11 11 11 12 10 11 12 13 17 18 19 20 20 21 23 23
17 17 16 15 14 13 11 11 11 11 11 11 11 10 10 10 10 10 10 10 9 8 8 9 10 9 9 9 9 12 14 13 14 12 11 11 11 10 8 10 11 11 10 10 14 18 18 16 15 13 13 10 10 10 10 13 14 12 13 14 15 16 13 12 12 10 7 4 3 3 4 7 10 10 10 11 9 12 14 14 18 19 19 22 21 21 21 21
18 18 17 17 16 14 12 11 11 11 11 11 10 10 10 9 9 9 9 10 9 8 7 7 8 8 9 9 10 13 14 12 12 12 11 10 11 11 10 10 10 12 12 11 14 17 17 15 15 11 11 11 11 12 13 14 15 15 15 15 12 13 14 12 11 11 11 7 4 4 6 8 10 8 8 10 10 14 17 17 20 19 17 20 22 23 22 20
20 19 18 18 16 15 14 12 11 11 10 10 9 9 9 9 8 8 8 9 9 8 7 6 7 7 8 9 10 13 13 13 11 10 11 11 11 11 11 11 10 12 13 12 13 16 19 18 17 13 13 10 9 9 9 10 13 15 15 15 10 9 11 11 11 13 14 12 8 7 7 11 9 6 8 10 10 15 19 18 20 18 15 18 21 23 23 22
19 19 18 18 17 15 15 14 13 11 10 9 8 8 8 8 8 7 7 7 8 8 7 6 6 7 9 9 9 11 13 13 11 9 10 10 10 10 10 11 10 12 14 13 13 16 20 22 18 15 15 13 13 12 9 4 8 12 11 13 12 12 13 13 15 17 16 16 14 10 7 8 8 7 8 10 11 16 19 18 20 19 17 18 20 22 23 23
18 18 17 17 16 15 15 14 14 12 10 9 8 7 7 7 7 6 6 6 7 7 7 6 6 6 7 7 7 9 9 11 11 10 10 10 9 9 9 12 11 12 14 15 16 16 16 18 16 15 17 17 16 16 15 10 9 10 11 13 14 17 18 15 17 20 20 19 17 12 8 7 7 8 8 10 10 15 18 18 19 19 18 18 19 22 25 24
18 17 16 15 15 15 14 14 14 13 11 9 7 6 6 6 6 6 5 6 6 6 6 5 5 4 4 6 6 4 4 8 10 8 8 9 9 8 8 11 11 12 14 16 18 18 12 12 13 16 17 17 16 16 16 14 11 8 10 15 15 18 20 15 17 23 25 21 18 13 7 6 7 8 11 11 9 14 18 18 18 17 18 19 19 22 26 26
18 17 16 15 14 13 13 13 13 13 11 9 8 6 6 6 6 6 5 5 4 4 4 4 3 3 2 4 3 2 6 6 5 4 5 6 8 8 6 8 12 13 14 16 19 19 15 13 16 18 17 15 15 14 12 13 13 9 11 15 14 17 19 15 15 20 27 24 18 14 9 9 8 10 16 14 10 16 20 18 16 17 18 19 19 22 26 27
18 17 16 15 13 13 12 11 12 11 10 9 8 6 6 6 6 5 5 5 3 3 2 2 2 1 1 2 1 3 5 2 3 5 3 4 8 10 6 7 11 13 14 16 19 18 17 16 16 18 18 16 14 11 12 15 17 14 13 14 15 17 18 17 14 13 25 31 24 17 13 10 8 11 18 17 14 19 22 20 16 17 19 17 17 20 24 27
18 17 16 14 13 12 11 11 11 10 10 9 8 7 6 6 6 6 6 5 5 3 2 2 2 3 1 1 2 2 5 3 6 6 3 3 7 11 11 11 11 13 14 15 18 18 16 16 15 16 17 19 18 16 19 21 17 15 16 18 16 16 17 18 18 14 22 32 28 23 18 11 10 12 18 18 16 19 21 21 18 18 19 17 17 20 22 25
18 17 16 14 13 12 11 11 11 10 9 8 7 7 7 7 7 8 8 8 8 5 2 1 3 2 2 4 3 4 7 6 6 5 2 2 5 8 11 12 9 11 14 14 16 17 15 15 15 17 19 21 22 23 25 21 14 14 17 18 16 16 17 16 18 16 20 31 29 25 23 15 14 17 19 19 17 18 20 20 21 20 19 18 19 20 20 22
18 16 16 15 13 13 12 11 11 11 9 8 7 7 7 6 7 9 9 10 10 6 4 2 3 5 3 4 6 7 7 5 3 1 1 1 3 6 9 10 9 11 14 13 13 14 15 16 17 20 21 20 20 21 23 18 15 17 18 19 18 17 18 15 14 15 18 32 28 24 25 20 17 18 20 20 18 19 20 20 23 22 21 20 20 21 20 21
18 17 16 15 14 13 13 12 12 10 9 8 6 6 6 4 6 8 7 10 10 8 8 6 6 12 9 10 12 5 4 1 3 2 2 3 1 5 6 10 11 12 15 14 10 10 14 19 20 20 19 19 18 17 18 17 16 18 19 19 20 20 20 17 14 14 17 28 27 26 28 25 23 22 22 22 19 19 18 19 24 24 22 21 20 21 21 20
18 17 17 16 15 14 13 12 11 11 10 8 6 3 3 3 5 7 7 9 10 9 9 7 9 13 9 10 12 5 3 3 3 3 5 4 3 6 4 7 10 12 12 13 13 13 17 21 20 19 18 17 16 17 18 18 17 17 19 19 20 19 18 17 10 11 16 23 27 32 32 29 27 25 23 22 21 19 16 17 21 23 22 21 21 22 22 22
18 18 17 16 16 14 12 11 10 10 9 8 7 4 2 3 5 6 8 9 9 9 9 6 6 7 4 8 8 4 6 6 4 7 9 4 5 7 5 6 8 11 10 12 16 18 20 17 14 13 16 17 16 17 18 19 20 19 19 19 19 17 17 16 10 8 11 16 22 34 34 29 27 25 23 21 20 19 16 16 18 19 21 20 19 22 23 24
19 18 17 16 15 14 12 10 9 7 7 6 7 6 4 3 5 5 8 8 7 7 6 3 3 4 5 7 4 5 9 10 7 8 10 6 5 6 6 7 7 11 12 14 16 18 20 15 9 8 11 17 18 18 17 18 20 20 19 20 19 17 17 18 17 17 14 13 15 31 32 27 31 28 25 24 20 20 19 20 20 19 20 20 18 21 23 24
19 18 17 16 14 14 12 10 8 7 5 2 1 6 6 5 5 5 6 8 5 3 4 5 4 6 6 4 4 9 11 7 3 7 9 6 9 7 8 11 10 12 11 13 15 18 20 16 13 13 11 14 18 19 19 18 19 20 19 18 18 18 19 21 19 18 17 17 10 25 22 21 34 32 28 27 24 23 23 23 23 21 23 24 22 22 24 25
19 18 18 16 14 13 12 9 8 5 3 2 4 8 7 5 4 3 6 8 3 2 6 8 3 4 4 0 6 10 6 2 3 8 9 7 10 10 11 12 10 11 11 10 14 18 19 15 15 17 16 15 17 19 20 19 20 20 18 16 15 15 18 22 21 17 16 19 13 12 8 12 33 35 30 29 27 27 27 25 24 23 25 26 25 24 25 27
19 19 18 17 16 13 11 10 8 6 7 8 7 7 5 3 2 2 4 5 2 6 8 9 6 6 4 2 7 10 2 2 7 10 9 7 8 11 12 12 8 10 11 10 13 14 15 15 15 17 19 18 18 19 19 19 21 20 17 16 15 14 14 17 20 19 18 23 22 19 16 5 27 36 33 30 31 32 30 27 24 24 26 25 25 25 27 29
20 19 17 17 17 14 12 10 9 9 10 12 9 5 3 2 1 1 2 3 4 10 10 10 8 2 4 4 6 10 2 2 5 10 10 7 5 9 11 12 10 11 11 11 14 12 10 13 14 16 19 21 20 19 16 18 21 20 15 15 16 15 13 12 15 18 18 20 23 23 17 6 15 34 37 33 35 36 31 28 25 24 27 25 25 25 27 29
21 20 18 16 16 15 12 10 10 10 9 9 8 4 2 2 3 3 2 1 5 10 8 7 5 4 4 1 4 6 2 1 3 6 8 8 5 4 8 9 10 14 14 11 14 15 14 14 11 11 18 22 21 17 14 16 20 19 16 15 17 14 10 8 8 11 12 13 21 25 18 9 6 24 42 41 38 35 30 28 25 24 25 24 25 26 25 28
22 20 19 16 14 14 12 11 9 8 7 6 5 3 3 4 4 1 1 2 6 8 6 5 3 1 3 3 2 2 1 1 4 5 5 6 5 3 4 7 9 14 16 12 12 15 19 19 13 8 12 18 20 17 15 16 15 14 16 16 17 17 15 13 8 7 7 6 17 26 21 12 8 12 37 42 31 26 28 30 28 25 23 23 25 27 26 28
22 20 19 16 14 11 10 9 6 4 6 5 4 4 6 4 2 1 1 5 7 7 7 4 2 3 3 3 3 3 3 1 4 5 5 5 6 7 7 5 6 9 14 15 13 13 17 21 16 9 6 10 17 19 17 15 15 14 15 15 13 16 18 14 9 8 5 4 12 21 22 17 12 12 21 25 19 20 25 29 28 25 23 24 25 25 25 27
22 20 19 16 13 9 7 7 4 3 5 4 5 7 6 3 2 4 3 1 3 6 6 5 5 5 3 2 0 2 1 2 2 2 4 5 7 9 9 7 5 6 8 12 13 14 18 21 19 12 7 7 14 20 17 13 16 15 13 13 9 7 10 7 4 5 5 7 12 15 18 18 18 22 22 20 19 23 25 25 25 23 22 23 23 23 24 26
21 18 17 14 11 7 4 3 2 2 3 6 7 7 6 3 4 3 6 6 5 8 6 6 7 5 3 3 2 2 2 2 1 1 3 4 6 8 8 8 7 6 6 7 9 13 12 16 19 16 12 10 11 17 18 13 15 15 12 14 11 4 1 2 4 3 5 12 17 17 16 16 19 24 26 25 24 25 26 25 27 26 22 21 21 22 23 25
18 16 13 10 7 5 3 2 1 2 6 9 10 8 5 2 3 9 14 14 9 7 6 3 3 4 2 1 2 1 1 2 1 4 5 4 4 5 6 5 3 6 6 6 8 10 9 8 13 15 15 14 13 16 18 13 14 18 16 16 17 14 7 3 2 5 6 11 19 21 16 15 20 23 26 27 25 26 27 24 24 26 23 19 18 21 23 24
15 13 9 5 4 3 2 1 2 7 12 12 10 8 4 3 9 13 13 13 9 8 9 5 3 5 5 5 2 2 3 3 3 4 4 3 4 5 4 3 1 7 8 5 5 8 12 11 8 9 11 13 15 18 19 15 13 15 20 22 23 20 16 12 10 11 11 7 10 18 17 18 24 24 22 21 21 25 28 26 25 26 26 22 20 23 23 23
12 10 5 2 4 5 3 5 9 12 15 14 11 8 3 5 11 10 6 10 11 9 11 10 3 4 6 4 7 5 1 4 3 1 1 2 3 5 1 1 4 4 6 4 3 11 14 15 10 4 6 9 9 14 20 21 14 11 17 24 24 20 15 15 15 19 17 8 6 14 16 20 24 21 18 18 19 20 24 30 30 28 29 27 25 25 22 21
12 16 11 5 4 4 5 10 15 15 16 16 11 7 5 5 8 8 5 6 10 8 9 11 6 6 8 5 9 3 6 4 1 1 2 3 6 10 2 3 9 4 4 4 1 8 12 17 16 8 6 6 4 7 14 24 19 15 18 18 18 19 19 16 10 9 8 3 3 13 17 14 20 19 19 21 22 21 22 28 30 28 31 31 28 25 21 19
11 16 17 12 11 9 8 12 12 11 15 13 9 7 8 8 7 10 8 5 7 5 5 10 7 6 10 10 8 5 6 4 3 3 3 2 9 13 8 6 11 8 5 6 4 3 9 16 21 20 14 13 7 7 7 20 24 21 23 19 13 12 15 17 10 3 3 2 2 11 18 15 16 21 21 22 24 24 24 27 27 25 26 30 31 24 18 19
10 15 18 15 15 15 14 13 10 11 13 8 8 7 8 12 13 13 10 9 7 3 3 8 7 6 11 12 10 8 6 6 6 6 9 11 10 8 5 4 5 5 8 9 9 9 8 13 19 28 19 16 10 5 7 9 18 20 26 26 22 14 11 13 13 9 5 2 2 7 11 14 15 16 17 22 25 24 24 27 27 24 22 26 30 25 19 21
13 15 15 10 13 14 14 14 13 16 13 7 8 6 4 10 15 14 11 12 9 6 6 7 7 9 12 10 10 11 8 8 8 6 8 11 8 4 9 9 5 7 10 8 8 11 9 8 18 30 26 22 17 9 10 16 9 11 19 21 20 17 13 12 13 15 12 5 2 2 4 12 16 13 11 15 21 24 22 23 26 26 25 25 26 25 23 22
17 16 12 9 12 11 13 16 14 12 9 4 6 6 3 6 12 12 11 11 10 8 9 9 7 9 11 9 12 14 8 5 7 8 9 10 8 5 9 13 11 9 11 9 7 9 9 6 16 28 29 28 24 19 16 20 17 13 13 14 13 13 14 11 9 15 17 12 8 3 6 14 16 8 7 9 9 23 22 18 23 26 27 27 26 25 24 21
16 16 11 11 12 12 14 15 10 5 6 6 7 8 6 5 9 11 9 9 8 8 10 11 6 6 9 8 10 13 8 4 6 11 14 12 10 11 12 15 15 9 7 9 5 6 11 10 16 25 29 32 30 24 18 17 16 15 11 12 9 9 13 12 7 11 14 15 18 12 9 12 12 4 11 17 7 23 27 18 19 22 22 25 24 23 23 21
14 16 11 7 10 15 15 13 8 3 4 5 6 7 6 5 7 8 8 8 8 9 12 12 7 7 9 6 6 9 9 4 5 8 9 9 9 11 9 10 14 12 7 5 2 5 8 7 13 20 27 35 37 34 28 21 17 15 8 10 10 9 12 14 12 14 14 9 14 13 7 13 12 4 15 17 10 15 27 21 18 17 21 25 26 26 26 22
14 15 13 9 9 11 10 12 12 9 6 5 4 7 9 8 7 6 7 6 5 9 12 10 6 7 8 6 6 9 7 3 3 5 3 4 8 11 11 8 8 10 10 9 8 8 6 5 11 14 14 23 29 28 26 21 15 15 11 11 9 9 16 15 11 11 12 13 8 3 6 21 20 10 19 17 11 10 12 21 19 13 21 29 29 30 29 25
11 12 10 10 9 7 9 11 11 9 8 6 5 7 11 14 13 9 9 9 4 10 9 5 3 6 7 6 7 9 9 6 7 7 8 8 9 12 14 13 10 4 4 8 8 9 10 11 11 9 4 7 12 10 13 19 22 18 13 11 9 12 20 17 11 10 10 15 16 6 5 20 18 14 16 14 11 19 11 13 14 7 17 28 27 28 28 27
6 8 8 6 4 2 7 11 8 6 8 7 6 5 8 12 13 9 8 8 5 8 6 2 3 5 7 8 7 7 8 6 7 7 10 11 13 16 17 18 17 11 7 8 8 8 13 16 17 15 13 15 17 14 12 19 25 23 20 20 18 15 15 11 10 11 13 18 18 8 5 12 11 14 14 11 8 12 12 12 9 6 13 17 20 27 28 27
5 6 6 3 2 3 4 9 9 3 4 7 8 6 7 8 9 8 8 9 6 5 6 6 6 7 8 9 7 5 6 4 4 6 10 12 14 16 16 16 16 12 8 8 7 7 12 17 18 19 22 25 27 26 23 22 24 26 27 26 22 18 14 13 12 12 14 17 16 11 10 13 11 13 15 15 6 5 13 16 12 11 16 13 10 22 27 29
6 6 5 1 4 7 7 7 10 8 2 4 7 7 7 7 7 6 6 9 6 6 7 7 7 7 6 7 6 5 6 5 4 7 9 11 13 14 15 14 11 8 7 7 4 5 10 17 17 17 22 25 27 28 28 25 23 24 24 25 24 20 17 15 14 13 13 15 16 16 16 13 8 11 16 16 7 5 13 18 16 18 20 20 15 15 21 33
6 6 8 5 2 7 8 8 8 10 8 4 5 7 8 6 7 5 3 5 4 8 8 6 5 7 5 5 6 6 7 7 7 9 8 10 14 16 16 15 11 6 7 9 6 6 11 17 15 15 20 23 23 24 25 25 26 26 24 24 25 21 17 16 15 12 14 19 19 18 17 13 9 13 19 18 10 6 8 9 16 20 21 26 27 20 18 32
6 6 8 7 7 7 8 9 6 5 7 4 3 5 6 4 6 6 3 3 4 5 6 6 8 11 8 5 5 6 6 6 7 9 8 9 14 16 16 16 14 11 10 12 10 8 12 16 15 14 21 23 21 19 20 23 26 27 27 26 26 24 19 18 18 14 15 20 19 17 18 17 12 15 20 20 15 14 14 7 9 18 19 25 30 28 23 29
10 6 7 10 14 13 11 8 3 1 5 5 4 5 6 6 6 6 3 2 5 4 5 7 8 8 8 6 6 5 7 6 7 9 10 10 12 13 14 15 15 14 14 14 12 11 13 15 14 13 19 22 18 14 15 19 23 27 30 28 28 27 23 19 18 16 14 17 19 16 15 15 13 16 19 18 16 15 15 15 5 9 14 17 23 28 26 23
13 8 7 12 14 13 9 3 4 3 5 9 8 6 5 5 6 8 5 1 2 2 3 5 5 7 9 8 7 8 8 8 10 13 13 13 14 14 15 15 14 15 16 15 15 15 16 17 16 13 16 20 17 13 17 18 17 20 25 26 26 28 27 23 21 20 18 17 19 17 15 18 18 18 18 15 12 15 14 17 17 5 9 10 14 21 23 21
Wind_Direction
321 319 318 317 314 311 307 303 301 299 298 298 299 297 294 292 287 285 284 283 280 278 277 274 269 266 266 265 261 256 251 251 253 254 253 252 252 243 244 234 217 222 217 212 212 206 203 198 196 199 204 206 204 197 165 230 262 269 291 306 322 327 332 342 318 308 322 213 197 173 162 181 184 180 178 173 166 152 147 151 148 147 159 168 168 162 161 164
323 321 319 317 315 312 309 306 302 299 298 297 297 296 294 292 289 286 284 282 280 276 275 275 272 267 264 264 263 259 254 251 250 252 254 252 250 241 240 237 223 223 217 213 211 202 199 190 193 200 202 203 190 164 143 212 252 278 292 297 318 332 332 349 346 316 316 226 196 176 165 177 181 181 176 169 164 156 153 151 148 152 159 167 172 168 165 167
324 321 319 318 315 313 311 308 305 302 300 300 298 296 294 292 290 287 284 281 279 277 275 273 272 270 266 263 261 260 258 252 247 251 253 246 243 241 237 233 226 224 215 210 203 193 188 173 183 195 194 193 166 144 157 211 250 272 283 300 345 358 341 351 353 338 340 308 190 171 170 173 170 179 175 166 162 162 165 161 161 165 164 167 175 174 170 172
323 321 319 317 315 314 311 309 307 305 304 303 301 299 297 294 291 286 284 282 279 277 276 274 271 269 268 265 261 260 259 256 247 244 247 242 240 238 232 226 217 217 207 206 201 193 188 164 164 181 175 181 164 167 205 218 242 264 275 304 351 338 335 349 341 334 355 2 176 161 164 158 162 179 172 166 167 167 174 173 176 178 169 169 177 177 174 177
322 319 317 315 314 313 311 309 307 306 305 304 303 301 301 298 294 289 285 282 279 276 274 274 271 268 268 265 263 260 259 262 246 232 236 235 236 234 230 223 212 210 201 204 201 197 201 173 154 181 174 179 183 192 208 208 220 247 268 301 325 311 324 350 342 335 357 353 121 149 155 147 164 179 165 170 176 174 176 173 179 187 174 172 177 177 177 180
319 316 315 314 313 313 311 310 308 306 304 302 301 301 302 300 298 294 288 284 279 275 272 271 271 268 266 264 265 259 255 255 238 221 225 221 227 229 225 223 216 212 205 207 201 197 212 187 166 198 201 185 189 200 210 210 220 239 259 290 304 281 293 340 337 328 340 352 44 141 151 140 157 174 168 173 176 173 171 167 175 187 183 176 175 178 181 184
315 312 312 311 311 312 311 311 309 308 306 303 300 298 300 300 300 298 293 289 281 277 272 267 267 267 265 260 260 256 249 246 236 213 201 209 217 224 222 220 219 219 213 211 207 200 207 187 168 193 220 197 188 195 208 224 238 249 260 283 288 256 272 319 320 318 316 332 8 118 152 143 152 169 174 170 168 166 166 168 170 178 184 180 176 179 184 188
313 312 310 307 307 308 310 311 310 309 308 304 301 297 296 297 298 299 298 295 287 281 274 266 262 260 261 257 256 255 247 245 241 223 203 208 211 219 219 218 219 222 218 209 210 200 196 189 167 184 216 207 190 192 203 225 236 247 256 271 280 267 282 298 292 303 292 262 316 117 153 153 152 160 169 165 166 167 169 173 166 169 177 177 178 178 183 188
313 313 311 308 305 304 307 308 308 309 308 306 303 298 293 291 294 297 299 298 293 287 277 269 261 255 255 252 247 246 244 249 252 234 214 224 228 220 214 215 216 216 212 202 204 197 194 193 172 183 207 205 209 216 221 243 242 240 243 249 264 271 284 286 271 276 279 239 254 218 137 145 148 145 157 164 174 178 178 174 164 170 174 173 179 178 182 187
314 314 314 311 305 302 303 303 305 306 307 306 304 299 293 287 288 292 296 298 297 292 282 269 260 255 250 246 239 238 242 251 259 250 227 225 229 228 222 217 213 211 204 195 200 199 196 184 166 184 205 212 236 239 233 242 247 246 246 253 257 262 273 272 260 267 267 228 232 230 119 129 144 140 159 172 185 187 184 174 168 176 175 173 180 181 186 190
314 314 314 312 307 303 301 301 301 302 304 304 301 299 291 285 284 286 292 296 296 292 285 272 262 256 247 242 237 237 244 251 259 265 257 241 233 232 229 221 212 208 201 196 198 198 197 172 153 186 218 226 238 242 243 242 244 245 250 262 258 255 263 250 246 266 264 242 215 195 140 135 141 143 176 186 183 183 185 178 175 182 180 175 177 182 188 190
313 314 313 312 308 303 301 301 300 300 301 300 299 296 287 283 281 282 288 292 294 291 284 271 259 252 246 240 237 239 247 253 257 263 263 255 246 239 230 222 213 206 200 198 193 191 192 168 154 194 219 230 235 233 247 249 248 245 245 259 250 239 248 243 256 272 261 243 216 194 155 140 145 151 173 187 182 176 183 183 177 183 185 178 177 184 190 190
310 312 312 311 309 304 301 301 300 300 298 297 297 293 285 281 277 278 284 287 291 287 279 272 256 249 250 244 242 247 251 257 260 258 257 253 247 244 229 217 210 204 200 194 184 187 192 171 165 200 210 221 236 233 234 233 252 252 249 259 254 243 240 241 259 261 248 244 241 232 197 161 162 170 163 174 182 174 180 184 179 181 186 181 179 186 190 192
310 311 311 312 310 306 302 300 301 301 300 298 296 291 283 277 274 272 277 284 285 280 274 267 257 256 254 251 255 257 260 262 261 258 254 251 243 238 227 216 208 201 197 191 175 173 190 180 179 203 207 218 233 238 238 228 239 250 244 245 245 245 240 231 241 242 231 232 242 242 234 217 189 182 170 164 176 177 180 186 185 184 185 183 182 185 190 194
311 311 312 312 309 306 302 299 301 302 302 298 294 292 280 272 271 268 272 280 277 270 266 260 264 264 251 254 251 256 299 278 265 261 247 243 237 225 219 212 205 201 195 196 182 164 176 206 214 214 212 221 229 236 243 240 240 242 235 237 234 239 245 238 231 234 229 218 221 230 219 200 198 190 175 167 184 192 189 192 192 190 190 191 188 187 192 194
315 315 316 315 311 306 300 297 298 301 301 295 291 288 278 270 262 259 265 274 269 248 245 250 250 237 256 267 237 274 326 300 280 287 249 231 226 212 211 216 206 199 195 199 194 172 171 205 225 225 220 221 225 234 246 252 252 237 232 242 238 235 243 242 227 229 226 206 194 212 197 172 195 194 181 180 197 198 199 203 196 192 197 199 192 188 192 194
321 321 321 321 315 306 299 295 295 298 298 293 287 281 277 267 254 250 254 255 237 215 215 230 209 136 301 277 81 328 311 319 350 321 268 226 221 200 191 237 220 200 196 197 196 186 183 195 211 223 221 214 215 227 237 243 242 234 234 239 240 237 239 239 228 217 217 204 187 194 202 191 201 195 188 192 195 193 198 207 201 195 200 201 194 188 191 194
326 326 326 326 321 311 303 295 294 297 299 295 285 281 279 267 254 243 238 229 200 171 96 147 179 88 45 271 45 305 259 281 336 320 270 223 222 203 192 218 222 201 197 196 195 196 197 198 202 215 221 215 205 205 221 230 229 226 227 227 229 231 236 242 236 218 204 198 185 184 197 197 191 190 191 194 194 194 202 209 205 200 203 204 197 190 188 194
330 330 328 327 324 318 311 305 300 299 301 299 287 278 275 268 258 241 233 221 192 165 100 168 221 144 64 356 2 256 268 300 318 307 261 196 201 213 208 205 208 200 195 199 203 204 206 206 206 209 216 218 210 205 215 225 230 233 237 241 240 233 237 242 238 239 209 189 179 181 192 190 181 185 191 194 193 198 208 211 205 203 206 206 201 197 192 194
334 334 331 329 330 326 322 319 312 307 307 305 295 284 281 268 246 242 230 213 201 202 209 188 253 256 270 290 247 244 285 305 317 328 57 76 169 202 215 196 185 194 196 203 212 212 210 211 216 216 214 217 220 221 221 223 232 245 259 269 275 269 262 249 239 259 221 187 176 178 188 186 188 195 195 195 195 202 212 210 206 206 207 209 207 205 201 196
334 334 333 333 336 334 331 330 326 322 315 311 308 291 287 272 236 246 230 207 214 237 233 194 231 254 243 231 234 253 290 225 99 92 56 7 129 165 196 183 182 200 198 195 207 223 218 215 220 223 222 220 222 231 234 233 235 248 263 271 281 285 283 272 250 253 219 188 178 183 188 190 200 208 199 198 206 213 219 214 210 210 208 211 211 207 206 198
332 333 334 334 337 337 336 337 335 330 325 325 322 297 285 289 263 262 256 235 238 259 259 229 225 238 232 239 249 251 216 157 104 252 289 337 146 152 190 183 187 209 208 196 200 219 226 227 229 226 229 232 228 229 235 240 241 250 260 268 277 277 287 289 250 227 222 203 189 186 190 198 208 212 205 208 217 220 226 221 215 213 210 212 210 206 205 201
330 331 331 332 334 334 337 337 337 336 330 330 325 330 14 315 288 281 276 274 263 256 256 246 220 220 236 259 257 216 176 124 99 243 270 295 156 154 199 204 197 211 221 213 206 215 225 239 253 239 228 231 237 236 233 239 241 246 251 258 269 268 278 282 253 246 244 225 203 189 188 194 195 199 208 218 221 221 227 217 214 216 212 215 214 210 207 204
329 329 329 330 331 331 334 333 333 325 308 329 338 328 350 334 313 306 288 291 282 256 237 222 196 193 232 252 231 161 165 132 115 221 252 262 185 165 200 210 216 218 222 224 219 223 226 237 272 272 233 222 231 238 235 241 242 244 244 245 257 257 264 268 270 289 288 275 228 185 174 176 182 191 205 215 218 220 222 210 212 218 209 211 216 214 212 209
327 327 326 326 327 326 328 328 325 318 305 355 6 297 326 352 330 321 301 300 296 265 180 174 201 199 213 250 198 176 176 149 117 226 240 225 185 186 205 204 220 227 225 230 231 235 237 237 243 251 245 223 226 233 233 237 241 248 244 240 249 252 259 263 271 297 299 297 248 176 163 173 190 200 204 207 212 211 213 213 215 214 203 208 213 211 211 210
324 325 324 322 323 320 321 321 313 312 305 242 221 266 313 348 333 332 317 310 292 187 157 165 198 182 158 349 182 176 176 174 215 223 229 219 200 208 207 197 217 225 219 232 237 240 245 245 237 239 243 231 227 231 230 230 236 245 242 237 244 246 258 264 270 290 288 288 275 217 233 191 188 201 205 206 210 204 208 218 218 209 203 209 212 210 211 210
323 322 320 318 318 314 314 312 298 278 274 284 279 282 314 339 339 3 329 319 198 169 163 162 150 125 100 28 159 156 141 221 205 214 233 239 224 229 214 193 205 218 215 236 249 244 240 241 238 237 242 238 231 229 229 229 233 239 239 237 241 242 253 261 265 273 272 280 283 275 290 227 181 198 209 211 208 200 206 216 216 209 206 211 211 209 213 211
323 319 318 315 312 310 308 302 292 275 271 289 297 295 324 317 237 73 11 355 129 153 166 173 164 174 308 315 177 169 167 285 223 232 259 291 267 240 222 195 202 222 222 245 259 249 227 234 239 235 239 241 238 235 232 228 230 235 236 237 248 257 265 261 254 259 265 277 278 272 283 291 192 199 208 212 204 199 206 214 215 209 206 210 208 208 216 216
323 319 318 314 308 307 305 294 289 280 270 279 284 279 300 235 184 99 33 326 138 147 171 197 207 269 295 296 184 182 154 326 264 254 278 319 329 254 231 210 215 228 228 246 263 255 238 233 237 240 239 237 238 241 233 225 229 233 233 239 251 259 268 263 246 259 267 262 265 267 268 292 264 202 197 200 201 204 212 219 222 216 210 214 209 204 214 219
325 322 320 319 312 307 302 299 297 283 265 255 253 238 199 185 149 72 294 168 137 136 149 192 209 15 36 51 170 170 38 271 245 263 288 309 322 328 282 235 231 235 231 236 257 261 251 239 236 258 251 235 235 239 234 232 232 231 231 239 249 251 263 274 258 273 306 268 257 265 262 267 301 206 192 195 208 223 224 220 222 220 215 216 211 204 209 216
326 323 322 322 317 311 301 299 297 265 249 226 202 175 167 156 123 282 246 137 126 113 119 142 126 71 18 322 230 226 312 271 204 249 283 286 284 305 316 283 250 249 242 242 254 262 252 243 241 249 244 234 236 236 237 234 226 230 233 232 240 245 256 270 251 244 299 303 264 267 264 258 266 252 212 204 226 247 237 226 221 219 215 212 210 209 212 215
326 324 324 323 319 320 307 295 296 251 228 184 170 159 129 80 240 243 282 206 139 95 103 117 93 88 68 36 145 177 194 168 154 247 265 269 270 276 289 288 265 268 260 251 260 264 248 240 236 227 228 241 236 234 239 232 222 234 236 222 226 245 247 248 223 223 236 246 258 261 260 255 253 258 244 223 231 241 240 244 241 229 216 210 210 211 213 213
326 323 322 322 323 330 320 303 320 252 194 148 149 134 88 30 257 278 22 44 79 76 89 121 100 80 61 49 36 102 137 228 238 287 275 286 275 261 275 281 255 265 294 280 289 297 274 244 232 231 243 245 225 228 238 234 222 229 227 215 220 231 216 208 194 197 235 240 242 243 250 251 246 251 245 231 234 240 238 245 250 240 222 215 215 213 214 214
328 326 326 332 338 342 355 2 329 183 142 131 126 97 47 330 352 23 42 55 55 48 58 102 65 351 315 307 328 40 356 295 261 270 299 338 317 286 301 315 232 221 265 297 310 316 311 267 229 225 239 243 230 223 225 230 229 227 221 218 227 229 225 243 193 173 204 230 228 222 224 231 232 239 242 234 235 246 248 245 245 240 227 220 217 212 216 218
335 332 329 347 15 26 45 50 128 131 118 109 95 65 17 343 21 24 38 41 19 9 26 19 320 308 277 249 242 199 232 310 322 287 287 301 319 319 302 328 295 224 239 283 312 328 318 287 234 213 230 236 236 224 213 223 239 227 217 220 227 229 228 241 254 254 257 264 237 225 220 222 228 233 237 238 237 244 248 242 234 233 227 219 211 208 212 216
5 17 16 33 48 42 56 100 112 112 103 83 54 32 22 28 28 23 29 28 11 357 3 1 341 323 309 219 166 156 277 320 326 352 187 228 358 27 240 310 9 262 250 275 339 7 335 275 233 213 230 218 240 244 222 222 234 220 215 223 226 226 231 239 258 273 276 294 285 258 244 223 222 229 230 230 233 234 236 233 229 231 230 219 208 208 211 214
50 53 53 84 81 29 40 96 106 98 81 65 39 16 14 32 38 20 342 357 10 3 358 5 6 342 354 100 135 89 11 24 75 314 236 188 70 57 63 17 34 12 283 286 316 20 336 273 234 222 276 266 274 287 234 218 226 235 228 226 219 216 226 238 257 280 270 268 274 272 273 238 206 209 218 219 221 223 231 235 229 225 228 221 210 209 213 217
61 57 57 78 85 67 66 97 112 86 60 47 26 29 33 35 27 357 344 1 11 4 0 12 15 343 5 54 81 33 20 56 78 18 339 42 62 65 74 51 38 23 305 282 267 281 321 293 246 233 284 300 274 331 289 216 218 241 245 244 242 227 232 240 240 257 272 286 267 267 283 273 216 202 207 210 212 214 225 236 229 220 223 220 209 205 215 223
51 56 54 69 85 80 75 86 92 60 49 30 14 45 57 42 22 357 15 50 32 47 57 21 26 8 8 30 37 29 28 21 19 6 355 11 32 44 32 9 29 4 300 285 294 286 312 324 264 243 267 295 273 328 348 216 207 231 245 252 261 266 269 257 239 231 232 248 289 265 275 277 256 236 224 214 206 206 219 230 225 218 218 215 207 205 215 221
51 49 44 72 98 85 66 60 55 47 42 15 20 64 101 47 28 10 33 55 44 67 69 27 28 16 9 29 33 25 24 9 4 350 347 17 36 340 314 318 323 349 330 311 318 308 307 320 277 259 261 278 274 261 325 340 331 264 252 255 263 261 260 267 260 248 235 217 268 272 259 261 259 262 261 237 213 203 210 223 222 217 219 219 212 211 214 215
56 39 33 91 102 81 60 46 34 37 48 33 34 60 69 42 38 22 28 49 45 53 49 26 30 25 15 26 27 19 17 10 14 26 32 37 41 15 351 343 335 351 7 9 1 321 302 279 275 272 270 277 269 247 278 323 342 330 291 269 275 271 254 252 262 253 239 224 221 246 291 262 246 257 332 339 241 203 191 205 219 217 219 220 213 209 211 214
62 49 52 100 90 61 53 44 29 35 67 51 31 36 39 47 50 38 38 54 53 60 51 25 13 31 21 12 11 3 354 359 9 23 36 38 27 21 15 1 351 353 12 25 30 285 278 277 279 276 274 274 262 243 261 295 314 318 286 246 263 287 266 249 248 268 256 226 212 220 276 256 226 266 352 6 320 207 187 186 212 219 220 218 214 213 217 223
67 65 62 86 70 42 26 21 30 63 72 60 41 35 48 61 46 38 47 63 73 76 53 31 31 43 19 1 1 346 337 351 349 356 22 36 21 1 344 353 11 13 355 347 333 276 275 291 304 291 277 272 259 248 256 276 306 319 285 261 278 297 295 273 267 296 303 270 212 201 239 231 206 295 325 342 348 202 192 188 192 208 221 221 222 225 223 221
73 68 45 26 40 48 34 24 39 59 63 76 70 23 10 7 9 27 30 18 71 78 42 21 44 44 13 8 14 359 351 347 305 304 314 357 356 334 307 311 2 24 13 339 308 306 313 316 325 321 299 281 267 259 263 274 314 338 327 313 309 335 340 320 295 310 326 326 301 203 215 225 224 300 307 300 8 67 166 184 177 188 213 217 226 228 220 218
82 77 58 32 26 55 77 52 42 72 77 75 81 33 10 4 5 34 39 360 33 84 51 8 20 17 10 23 15 10 18 10 342 318 279 275 293 296 297 304 311 322 353 332 297 283 294 299 306 315 320 292 275 276 302 315 326 326 306 295 300 340 354 349 336 342 355 343 328 328 250 239 251 333 321 288 357 34 65 153 155 153 194 208 228 231 223 221
91 100 114 99 49 66 90 58 38 100 109 97 97 60 30 20 8 21 42 21 47 88 67 38 41 25 26 29 13 10 18 6 351 326 288 275 275 282 293 303 309 300 276 293 292 279 286 283 277 275 266 263 261 259 289 314 318 311 298 290 292 313 337 338 328 335 346 335 315 306 312 278 298 354 339 316 2 31 51 101 136 148 162 187 219 226 226 224
83 114 139 132 354 347 73 53 31 47 138 122 104 62 34 31 17 16 38 44 59 58 37 45 49 48 42 21 6 4 352 325 308 302 291 284 281 285 291 297 309 314 297 292 289 288 293 278 270 275 270 264 265 265 274 295 306 305 301 293 289 297 308 308 311 319 330 324 302 297 323 317 340 9 341 329 360 57 51 71 105 118 107 109 171 203 213 216
61 98 119 128 5 19 37 46 30 13 2 144 121 73 52 41 32 38 47 51 40 342 6 44 37 34 35 2 351 3 353 344 335 318 307 307 308 307 307 308 313 312 311 311 263 241 285 281 277 281 275 271 271 268 273 287 293 290 290 290 292 299 307 308 307 308 313 310 295 295 307 307 336 5 338 327 341 34 43 65 99 119 108 91 103 153 185 196
55 97 117 126 72 40 44 52 35 9 12 83 111 66 61 49 31 34 34 45 20 331 356 37 10 4 16 354 354 4 354 351 338 322 317 319 324 326 324 323 322 307 306 312 284 246 268 274 273 280 282 280 276 270 269 277 281 279 278 283 288 291 298 298 299 302 296 286 285 294 298 288 303 329 316 306 302 312 346 47 98 117 104 83 85 105 145 182
54 112 124 94 64 57 53 60 60 4 2 48 87 52 55 55 29 26 21 18 357 340 6 14 352 354 357 345 353 353 336 327 315 312 318 317 318 322 321 318 321 322 320 318 310 284 269 264 260 279 291 286 278 275 270 268 274 276 273 275 276 276 280 282 283 288 282 276 284 300 297 287 305 332 316 293 272 267 282 300 93 97 85 79 90 104 126 167
46 88 117 88 74 67 54 51 65 304 335 356 27 46 52 52 16 346 314 338 353 354 5 360 348 342 337 340 351 328 295 295 308 306 304 302 300 303 303 303 310 312 308 310 310 295 281 272 263 276 295 292 283 281 277 273 275 273 268 269 270 271 277 279 276 273 270 278 288 294 294 294 307 324 320 300 266 257 274 274 248 92 78 80 94 106 116 144
47 65 91 89 79 65 59 35 302 316 6 8 19 30 21 21 350 319 293 232 20 6 354 346 321 304 319 330 328 311 302 318 322 304 292 289 283 279 280 281 286 288 286 289 291 285 285 286 279 277 290 289 281 283 287 289 288 274 264 262 264 267 272 274 273 266 259 267 276 280 290 299 300 300 307 308 270 252 268 270 256 210 100 84 89 106 114 119
Height
3144 3142 3142 3141 3140 3139 3138 3137 3136 3135 3134 3134 3133 3132 3132 3131 3131 3130 3130 3130 3130 3130 3129 3129 3129 3129 3129 3129 3129 3130 3130 3130 3131 3132 3133 3134 3135 3136 3136 3137 3138 3139 3140 3142 3143 3145 3147 3149 3151 3152 3154 3155 3157 3158 3159 3160 3160 3161 3162 3162 3162 3162 3162 3162 3161 3161 3161 3160 3160 3163 3164 3164 3165 3165 3164 3164 3166 3167 3169 3171 3172 3173 3175 3177 3178 3179 3181 3182
3143 3142 3141 3140 3139 3138 3137 3136 3135 3134 3134 3133 3132 3132 3131 3130 3130 3129 3129 3129 3129 3128 3128 3128 3128 3128 3128 3128 3128 3128 3129 3129 3130 3131 3132 3133 3134 3134 3135 3136 3137 3138 3140 3141 3143 3145 3146 3148 3150 3151 3153 3154 3156 3157 3159 3159 3160 3161 3162 3162 3162 3162 3162 3162 3161 3161 3161 3160 3159 3161 3164 3166 3166 3166 3164 3163 3165 3167 3169 3171 3172 3173 3175 3177 3179 3180 3181 3183
3142 3141 3140 3139 3138 3137 3136 3135 3134 3134 3133 3132 3132 3131 3130 3130 3129 3128 3128 3128 3127 3127 3127 3127 3127 3127 3127 3127 3127 3127 3127 3127 3129 3130 3130 3132 3132 3133 3134 3135 3136 3137 3139 3141 3142 3144 3145 3147 3149 3150 3152 3153 3155 3157 3159 3160 3160 3161 3162 3162 3161 3161 3162 3161 3161 3161 3161 3160 3160 3162 3164 3166 3168 3167 3165 3165 3166 3168 3170 3171 3172 3173 3174 3176 3178 3180 3181 3183
3142 3140 3139 3138 3137 3136 3135 3134 3133 3133 3132 3131 3131 3130 3129 3129 3128 3127 3127 3127 3126 3126 3126 3126 3126 3125 3125 3126 3125 3126 3125 3126 3128 3129 3129 3130 3131 3132 3133 3134 3135 3136 3138 3139 3141 3142 3144 3145 3147 3149 3151 3152 3154 3157 3159 3161 3161 3161 3161 3161 3160 3161 3162 3162 3161 3162 3161 3160 3162 3164 3165 3167 3169 3168 3166 3166 3167 3168 3170 3171 3172 3173 3175 3176 3177 3180 3181 3183
3141 3139 3138 3137 3136 3135 3134 3133 3132 3132 3131 3130 3130 3129 3129 3128 3127 3126 3126 3125 3125 3125 3125 3125 3124 3124 3124 3124 3125 3125 3124 3124 3127 3128 3127 3128 3130 3131 3132 3133 3134 3135 3136 3137 3139 3141 3142 3143 3146 3149 3150 3152 3155 3157 3158 3160 3162 3162 3160 3159 3160 3161 3161 3162 3162 3162 3162 3161 3162 3166 3168 3168 3168 3168 3167 3167 3167 3168 3169 3171 3173 3174 3176 3177 3177 3180 3182 3183
3139 3138 3137 3136 3135 3134 3133 3132 3131 3130 3130 3129 3128 3128 3127 3127 3126 3125 3125 3124 3124 3123 3124 3123 3123 3123 3123 3123 3123 3124 3123 3123 3125 3126 3126 3127 3129 3130 3131 3132 3133 3134 3135 3136 3138 3140 3141 3142 3144 3148 3149 3151 3153 3155 3157 3159 3161 3161 3159 3159 3160 3161 3161 3162 3162 3162 3163 3161 3162 3165 3167 3168 3168 3167 3168 3169 3169 3168 3169 3171 3174 3175 3177 3179 3179 3180 3182 3183
3137 3136 3135 3134 3134 3133 3132 3131 3130 3129 3128 3128 3127 3127 3126 3125 3125 3124 3123 3123 3123 3122 3122 3122 3122 3122 3122 3122 3122 3123 3123 3122 3123 3125 3126 3126 3127 3128 3130 3131 3132 3133 3134 3135 3137 3138 3141 3141 3143 3147 3150 3151 3152 3154 3156 3158 3160 3160 3160 3161 3161 3161 3162 3163 3163 3163 3163 3162 3163 3164 3165 3167 3168 3168 3169 3169 3170 3170 3171 3172 3174 3175 3177 3179 3180 3181 3182 3183
3136 3134 3133 3132 3131 3131 3131 3130 3129 3128 3127 3126 3126 3125 3125 3124 3123 3123 3122 3122 3121 3121 3121 3121 3121 3121 3121 3121 3121 3122 3121 3120 3121 3124 3125 3125 3126 3127 3128 3130 3131 3132 3134 3135 3136 3138 3140 3141 3142 3147 3150 3151 3152 3154 3155 3157 3159 3160 3160 3162 3162 3162 3162 3163 3163 3162 3162 3162 3163 3165 3165 3167 3168 3169 3169 3170 3170 3171 3172 3173 3174 3176 3177 3179 3180 3182 3183 3184
3134 3133 3132 3130 3129 3129 3129 3128 3127 3127 3126 3125 3124 3124 3123 3123 3122 3121 3121 3120 3120 3120 3119 3119 3119 3120 3120 3120 3121 3120 3119 3119 3120 3123 3124 3125 3126 3126 3127 3129 3130 3132 3133 3134 3136 3137 3139 3140 3142 3146 3149 3151 3152 3154 3156 3157 3158 3159 3160 3161 3161 3161 3162 3163 3162 3162 3162 3162 3164 3165 3166 3167 3168 3169 3170 3171 3171 3172 3173 3173 3174 3176 3177 3179 3180 3181 3183 3184
3133 3132 3130 3129 3128 3127 3126 3126 3125 3125 3124 3124 3123 3122 3122 3121 3121 3120 3120 3119 3119 3118 3118 3118 3118 3118 3119 3119 3119 3119 3119 3119 3120 3121 3123 3124 3125 3126 3126 3127 3129 3131 3132 3134 3135 3136 3138 3140 3143 3147 3149 3151 3152 3153 3155 3156 3157 3158 3159 3160 3161 3160 3160 3161 3161 3162 3161 3162 3164 3164 3165 3166 3167 3169 3170 3171 3172 3172 3173 3174 3175 3176 3177 3178 3179 3181 3182 3184
3131 3130 3129 3128 3127 3125 3125 3124 3123 3123 3122 3122 3121 3121 3120 3120 3120 3119 3119 3118 3118 3117 3117 3117 3117 3117 3118 3118 3118 3118 3119 3119 3120 3121 3121 3122 3124 3124 3126 3127 3128 3130 3131 3133 3134 3136 3139 3140 3143 3148 3149 3150 3152 3153 3154 3154 3155 3156 3156 3158 3159 3159 3159 3159 3160 3161 3161 3161 3163 3164 3164 3165 3167 3169 3170 3171 3172 3172 3173 3174 3175 3176 3177 3178 3179 3181 3182 3184
3130 3129 3128 3127 3125 3124 3123 3122 3122 3121 3120 3120 3120 3119 3119 3119 3118 3118 3118 3117 3116 3116 3116 3116 3116 3116 3116 3117 3117 3117 3118 3119 3119 3120 3120 3121 3122 3123 3124 3126 3127 3129 3130 3132 3133 3136 3138 3139 3141 3146 3149 3150 3151 3152 3153 3153 3153 3154 3154 3155 3156 3157 3158 3158 3158 3159 3160 3160 3161 3162 3163 3165 3167 3169 3170 3170 3172 3172 3173 3174 3175 3176 3177 3178 3179 3180 3182 3184
3128 3127 3126 3125 3124 3123 3122 3121 3120 3119 3119 3118 3118 3118 3117 3117 3117 3117 3117 3116 3116 3115 3115 3114 3115 3115 3115 3116 3117 3117 3117 3117 3118 3119 3119 3120 3121 3122 3123 3125 3126 3128 3129 3131 3133 3136 3138 3138 3140 3143 3146 3148 3149 3150 3150 3151 3153 3153 3154 3154 3155 3156 3156 3157 3157 3157 3158 3158 3160 3161 3163 3165 3166 3167 3168 3170 3171 3172 3173 3174 3175 3175 3177 3178 3178 3180 3181 3183
3126 3125 3124 3123 3122 3121 3120 3119 3118 3118 3117 3116 3116 3116 3116 3116 3116 3116 3115 3115 3115 3114 3113 3113 3113 3114 3114 3115 3116 3116 3116 3116 3116 3117 3118 3119 3119 3121 3122 3124 3125 3127 3128 3130 3131 3135 3138 3138 3139 3141 3143 3145 3146 3147 3148 3149 3150 3152 3153 3153 3154 3154 3154 3156 3156 3155 3155 3156 3159 3160 3162 3164 3165 3166 3167 3169 3171 3172 3173 3173 3174 3175 3176 3177 3178 3179 3181 3183
3124 3123 3122 3121 3120 3119 3119 3118 3117 3116 3116 3115 3115 3115 3115 3115 3115 3115 3114 3114 3114 3113 3112 3112 3112 3113 3113 3114 3114 3115 3115 3115 3115 3116 3117 3117 3118 3119 3121 3122 3124 3126 3128 3129 3130 3132 3136 3139 3139 3140 3141 3143 3144 3146 3146 3147 3148 3149 3151 3151 3152 3152 3152 3154 3155 3153 3151 3153 3157 3158 3159 3163 3164 3165 3166 3168 3171 3172 3173 3173 3173 3174 3175 3176 3177 3179 3180 3182
3123 3121 3120 3119 3118 3117 3117 3116 3115 3115 3114 3114 3114 3113 3113 3113 3113 3113 3113 3113 3113 3112 3112 3111 3112 3112 3112 3113 3113 3113 3114 3114 3115 3115 3116 3116 3117 3118 3120 3121 3123 3125 3127 3128 3129 3130 3133 3137 3138 3139 3140 3142 3143 3145 3146 3147 3147 3147 3148 3149 3150 3151 3151 3152 3152 3153 3150 3150 3155 3156 3157 3160 3162 3164 3165 3168 3169 3171 3172 3172 3173 3174 3174 3175 3176 3178 3179 3181
3121 3120 3119 3118 3117 3116 3115 3114 3114 3113 3113 3113 3113 3112 3112 3112 3112 3112 3112 3112 3112 3111 3111 3111 3111 3112 3112 3112 3112 3113 3113 3114 3114 3115 3115 3116 3116 3117 3119 3121 3122 3124 3126 3127 3129 3130 3131 3133 3136 3137 3138 3140 3142 3145 3146 3145 3145 3147 3148 3148 3149 3149 3150 3150 3149 3152 3150 3147 3152 3155 3156 3158 3160 3162 3164 3166 3168 3169 3170 3171 3172 3173 3173 3174 3175 3177 3178 3179
3120 3119 3118 3117 3116 3115 3114 3113 3112 3112 3112 3112 3111 3111 3111 3111 3111 3111 3110 3111 3111 3110 3110 3110 3111 3111 3112 3112 3113 3113 3113 3114 3114 3114 3114 3115 3115 3116 3118 3119 3121 3123 3125 3126 3128 3129 3131 3132 3134 3136 3137 3138 3139 3142 3142 3141 3143 3145 3146 3146 3147 3147 3148 3148 3147 3149 3149 3147 3150 3153 3154 3156 3159 3161 3163 3166 3167 3169 3170 3170 3171 3172 3172 3173 3174 3176 3177 3178
3119 3118 3117 3116 3115 3114 3113 3112 3111 3110 3110 3110 3110 3110 3110 3109 3109 3109 3109 3109 3110 3109 3109 3109 3110 3111 3112 3112 3114 3113 3112 3113 3113 3113 3114 3114 3115 3116 3117 3118 3120 3122 3123 3125 3126 3128 3130 3131 3133 3133 3134 3135 3137 3138 3138 3140 3143 3144 3144 3145 3146 3146 3146 3146 3145 3147 3148 3146 3148 3151 3152 3155 3157 3159 3162 3165 3167 3168 3168 3169 3170 3170 3171 3172 3173 3174 3176 3177
3118 3117 3116 3115 3114 3113 3112 3111 3110 3109 3109 3108 3108 3108 3108 3108 3108 3107 3107 3108 3108 3108 3108 3108 3109 3111 3111 3112 3113 3112 3112 3112 3112 3112 3113 3114 3115 3115 3116 3117 3119 3121 3122 3124 3126 3127 3129 3130 3130 3131 3132 3134 3136 3137 3138 3141 3143 3142 3143 3143 3144 3144 3144 3145 3144 3144 3145 3144 3147 3149 3150 3153 3155 3157 3159 3162 3164 3166 3166 3167 3168 3169 3170 3170 3172 3173 3175 3176
3117 3116 3115 3114 3113 3112 3111 3110 3109 3108 3107 3107 3107 3107 3107 3107 3107 3106 3106 3107 3107 3107 3107 3107 3108 3109 3109 3110 3111 3111 3111 3111 3112 3112 3113 3114 3114 3115 3116 3117 3119 3120 3121 3124 3125 3127 3128 3127 3128 3130 3132 3134 3136 3138 3139 3140 3141 3141 3141 3142 3142 3141 3141 3142 3143 3143 3143 3143 3146 3147 3147 3150 3152 3153 3156 3158 3160 3162 3163 3164 3165 3167 3168 3169 3171 3172 3173 3175
3117 3115 3114 3113 3112 3111 3110 3109 3108 3107 3106 3105 3105 3105 3106 3106 3106 3106 3105 3105 3106 3106 3106 3106 3106 3107 3108 3109 3109 3110 3111 3110 3111 3112 3113 3114 3114 3115 3116 3117 3118 3120 3121 3123 3125 3126 3126 3125 3127 3130 3132 3133 3135 3136 3138 3139 3140 3140 3140 3141 3140 3140 3139 3138 3139 3141 3144 3143 3142 3143 3144 3146 3148 3151 3154 3154 3156 3158 3160 3162 3163 3165 3167 3167 3169 3171 3172 3174
3116 3114 3113 3112 3111 3110 3109 3108 3107 3106 3105 3104 3104 3104 3105 3105 3105 3105 3104 3104 3104 3104 3104 3104 3105 3107 3108 3108 3108 3109 3110 3110 3111 3112 3112 3114 3115 3115 3116 3117 3118 3120 3121 3122 3123 3124 3124 3124 3126 3129 3130 3132 3134 3135 3136 3137 3139 3139 3140 3140 3140 3139 3139 3137 3136 3138 3142 3143 3142 3140 3141 3144 3147 3150 3152 3153 3155 3156 3158 3160 3161 3163 3165 3166 3168 3169 3170 3172
3114 3113 3112 3111 3110 3109 3108 3108 3107 3106 3105 3104 3103 3103 3104 3104 3103 3103 3103 3102 3102 3102 3102 3103 3105 3106 3107 3107 3107 3108 3109 3110 3111 3111 3111 3113 3114 3115 3116 3117 3118 3119 3121 3121 3122 3123 3123 3124 3126 3127 3128 3130 3132 3133 3135 3136 3136 3137 3139 3139 3139 3139 3138 3137 3137 3137 3137 3139 3140 3140 3142 3145 3145 3146 3148 3151 3154 3155 3156 3157 3159 3161 3163 3165 3166 3167 3168 3170
3113 3112 3110 3109 3109 3108 3107 3107 3106 3105 3104 3103 3103 3102 3103 3103 3102 3102 3101 3101 3100 3100 3101 3103 3104 3105 3106 3106 3107 3107 3108 3109 3110 3111 3111 3112 3113 3114 3115 3116 3117 3118 3120 3121 3122 3122 3122 3124 3125 3126 3127 3128 3130 3131 3133 3134 3135 3135 3136 3137 3138 3138 3138 3136 3136 3138 3136 3136 3138 3139 3143 3145 3144 3143 3144 3147 3150 3151 3152 3154 3155 3158 3161 3162 3164 3165 3166 3168
3111 3110 3109 3108 3107 3106 3106 3105 3105 3104 3102 3102 3102 3102 3102 3102 3102 3101 3101 3100 3099 3100 3101 3103 3104 3104 3105 3106 3106 3107 3108 3109 3110 3111 3111 3112 3112 3112 3113 3115 3116 3117 3119 3120 3121 3120 3121 3123 3124 3125 3126 3127 3128 3129 3131 3133 3134 3133 3134 3136 3137 3137 3137 3135 3135 3137 3137 3135 3136 3138 3140 3141 3141 3142 3142 3143 3145 3147 3148 3150 3152 3154 3157 3158 3160 3162 3164 3165
3110 3109 3108 3106 3105 3105 3104 3104 3103 3103 3101 3101 3101 3101 3101 3101 3101 3101 3100 3100 3099 3100 3101 3103 3104 3104 3105 3106 3106 3106 3108 3108 3109 3110 3111 3111 3112 3111 3112 3114 3115 3116 3118 3119 3119 3118 3120 3122 3123 3124 3125 3125 3126 3127 3129 3131 3131 3132 3132 3133 3134 3136 3136 3135 3135 3136 3136 3134 3133 3135 3136 3136 3138 3140 3141 3142 3143 3144 3145 3147 3150 3152 3153 3155 3157 3159 3161 3162
3108 3107 3106 3105 3103 3102 3103 3102 3101 3101 3100 3100 3100 3101 3101 3101 3101 3100 3100 3100 3099 3099 3101 3102 3103 3104 3104 3105 3106 3106 3107 3108 3109 3110 3110 3111 3111 3111 3112 3113 3113 3114 3116 3117 3116 3116 3118 3120 3121 3122 3123 3123 3123 3125 3127 3129 3129 3130 3132 3132 3132 3134 3135 3135 3134 3134 3136 3134 3130 3131 3134 3134 3134 3135 3138 3140 3142 3143 3144 3144 3146 3148 3150 3152 3154 3156 3158 3160
3106 3105 3104 3103 3101 3100 3100 3100 3100 3100 3099 3099 3099 3100 3100 3100 3101 3100 3101 3101 3099 3099 3101 3102 3103 3104 3104 3105 3106 3106 3107 3108 3110 3109 3110 3110 3110 3111 3111 3112 3112 3112 3113 3114 3114 3114 3115 3116 3118 3120 3120 3121 3122 3124 3125 3127 3128 3129 3131 3131 3130 3131 3132 3133 3134 3133 3134 3133 3129 3129 3133 3134 3132 3131 3133 3137 3139 3140 3140 3140 3141 3144 3147 3149 3151 3153 3155 3157
3104 3103 3101 3101 3100 3099 3098 3098 3098 3098 3098 3098 3099 3099 3099 3100 3100 3100 3102 3101 3099 3100 3102 3102 3103 3104 3104 3104 3105 3106 3108 3109 3110 3110 3110 3110 3110 3111 3111 3112 3112 3111 3111 3112 3112 3112 3111 3112 3114 3116 3117 3119 3121 3123 3124 3125 3126 3128 3129 3130 3130 3130 3130 3132 3132 3132 3132 3131 3128 3127 3131 3134 3132 3130 3131 3133 3135 3135 3135 3136 3138 3141 3144 3147 3149 3151 3153 3155
3102 3101 3099 3098 3098 3097 3096 3096 3097 3097 3097 3097 3098 3098 3099 3100 3101 3101 3101 3100 3099 3101 3102 3102 3103 3104 3104 3105 3106 3106 3107 3108 3109 3110 3110 3110 3110 3111 3111 3111 3112 3112 3112 3111 3111 3112 3111 3110 3112 3114 3115 3117 3119 3120 3122 3123 3125 3127 3128 3129 3130 3129 3130 3130 3131 3132 3133 3132 3129 3127 3129 3133 3131 3129 3130 3131 3131 3132 3133 3134 3135 3138 3141 3144 3146 3148 3150 3152
3100 3099 3097 3096 3096 3095 3095 3095 3096 3096 3096 3097 3098 3099 3099 3100 3101 3101 3099 3099 3100 3102 3102 3103 3103 3104 3105 3105 3106 3107 3107 3108 3109 3109 3110 3110 3111 3111 3111 3112 3112 3112 3112 3111 3112 3112 3111 3110 3111 3113 3114 3117 3118 3118 3120 3122 3123 3125 3125 3127 3128 3129 3129 3130 3130 3131 3132 3132 3131 3130 3129 3129 3128 3127 3128 3130 3131 3132 3132 3133 3134 3136 3138 3140 3142 3144 3147 3149
3098 3097 3096 3095 3094 3094 3094 3094 3095 3095 3096 3097 3098 3100 3100 3101 3101 3100 3099 3099 3101 3102 3102 3103 3103 3104 3105 3105 3106 3107 3106 3108 3109 3109 3110 3110 3110 3111 3112 3112 3112 3112 3111 3111 3111 3111 3110 3110 3111 3113 3114 3116 3117 3118 3119 3120 3122 3123 3124 3126 3127 3128 3130 3131 3130 3130 3131 3131 3131 3132 3130 3127 3126 3127 3126 3127 3128 3130 3131 3132 3132 3134 3135 3136 3138 3141 3143 3146
3096 3095 3094 3094 3094 3094 3094 3094 3095 3095 3096 3098 3099 3100 3100 3101 3101 3100 3100 3100 3102 3103 3103 3103 3104 3105 3105 3105 3106 3106 3107 3108 3109 3109 3110 3110 3110 3111 3111 3111 3110 3110 3110 3111 3111 3110 3110 3109 3110 3112 3114 3114 3116 3117 3118 3119 3121 3121 3123 3126 3126 3126 3128 3128 3127 3128 3129 3127 3127 3128 3128 3124 3123 3125 3125 3125 3126 3126 3128 3130 3130 3132 3134 3135 3136 3139 3141 3143
3095 3094 3094 3094 3094 3094 3094 3094 3095 3096 3097 3099 3100 3100 3101 3102 3102 3101 3101 3102 3102 3103 3103 3103 3104 3105 3104 3105 3106 3106 3107 3108 3108 3109 3110 3110 3111 3111 3110 3109 3109 3109 3110 3111 3111 3111 3110 3107 3107 3109 3111 3113 3116 3116 3117 3118 3118 3120 3122 3123 3124 3124 3125 3125 3124 3124 3125 3125 3124 3124 3123 3120 3120 3122 3123 3125 3124 3124 3124 3125 3128 3131 3133 3134 3135 3136 3138 3140
3094 3093 3093 3094 3094 3094 3095 3096 3096 3097 3098 3099 3099 3101 3103 3103 3103 3103 3103 3103 3103 3103 3103 3103 3104 3104 3104 3104 3106 3106 3107 3108 3108 3109 3110 3111 3112 3111 3110 3110 3110 3110 3111 3112 3113 3113 3110 3105 3104 3107 3108 3110 3114 3115 3116 3117 3116 3118 3119 3120 3121 3123 3125 3125 3124 3122 3123 3124 3123 3121 3118 3118 3119 3119 3120 3121 3121 3122 3121 3121 3123 3127 3129 3131 3132 3133 3135 3137
3095 3094 3094 3095 3095 3095 3096 3097 3098 3099 3100 3100 3100 3103 3104 3104 3103 3104 3103 3104 3104 3104 3104 3104 3104 3104 3105 3105 3106 3107 3108 3108 3108 3109 3110 3111 3112 3112 3111 3111 3111 3112 3112 3113 3114 3115 3113 3106 3103 3106 3106 3106 3108 3109 3111 3114 3116 3116 3117 3118 3121 3123 3123 3123 3124 3122 3122 3123 3121 3118 3115 3115 3116 3116 3116 3117 3118 3119 3119 3118 3120 3123 3125 3128 3130 3131 3133 3135
3097 3097 3096 3096 3096 3098 3098 3099 3100 3100 3100 3100 3103 3105 3105 3104 3103 3104 3103 3104 3104 3105 3105 3106 3105 3106 3106 3107 3107 3108 3108 3108 3109 3109 3109 3110 3112 3113 3112 3112 3112 3112 3112 3113 3114 3115 3115 3110 3102 3103 3107 3106 3106 3107 3108 3111 3115 3115 3115 3117 3119 3121 3121 3122 3123 3123 3123 3123 3120 3117 3114 3113 3113 3113 3113 3114 3114 3115 3116 3115 3117 3119 3121 3125 3128 3130 3132 3134
3099 3098 3097 3098 3099 3100 3101 3102 3103 3102 3101 3102 3105 3105 3105 3105 3104 3104 3104 3104 3104 3105 3106 3106 3106 3106 3107 3108 3109 3109 3109 3109 3109 3110 3110 3110 3111 3112 3112 3112 3112 3112 3111 3113 3114 3114 3117 3115 3105 3101 3105 3107 3107 3108 3109 3111 3115 3115 3114 3114 3117 3119 3120 3121 3120 3121 3122 3122 3120 3118 3115 3112 3111 3112 3112 3112 3112 3113 3113 3113 3116 3119 3120 3123 3126 3128 3131 3133
3100 3099 3099 3101 3101 3101 3102 3102 3102 3102 3103 3105 3106 3105 3105 3106 3105 3105 3104 3104 3105 3105 3106 3106 3106 3107 3107 3108 3109 3109 3109 3110 3109 3111 3111 3111 3111 3112 3111 3110 3111 3112 3111 3112 3115 3114 3116 3117 3110 3101 3103 3107 3106 3106 3108 3111 3114 3115 3113 3113 3115 3117 3119 3119 3119 3119 3120 3120 3120 3120 3117 3112 3110 3112 3112 3112 3111 3112 3112 3111 3113 3117 3119 3121 3125 3127 3129 3131
3100 3100 3102 3102 3102 3103 3103 3102 3102 3104 3105 3106 3106 3106 3106 3106 3106 3106 3105 3105 3106 3106 3106 3107 3107 3108 3107 3107 3108 3108 3108 3109 3110 3111 3112 3111 3112 3113 3111 3110 3110 3112 3112 3112 3115 3115 3114 3116 3113 3106 3104 3105 3103 3102 3106 3111 3114 3114 3112 3111 3113 3115 3117 3118 3117 3117 3117 3118 3118 3119 3117 3110 3108 3111 3111 3110 3111 3111 3112 3110 3110 3114 3117 3119 3122 3124 3127 3129
3101 3102 3104 3104 3104 3105 3104 3103 3105 3106 3106 3107 3106 3106 3107 3107 3106 3106 3106 3106 3106 3106 3107 3107 3107 3108 3108 3107 3108 3108 3108 3110 3110 3111 3112 3113 3113 3114 3112 3111 3110 3111 3112 3113 3114 3114 3114 3114 3113 3109 3106 3104 3102 3101 3104 3110 3113 3112 3112 3112 3113 3115 3116 3116 3116 3115 3115 3115 3116 3118 3117 3109 3106 3109 3108 3107 3109 3110 3110 3110 3108 3110 3114 3117 3120 3122 3124 3126
3103 3103 3105 3106 3106 3105 3104 3105 3106 3106 3107 3108 3107 3107 3107 3107 3107 3106 3106 3105 3105 3107 3108 3107 3107 3108 3108 3108 3109 3108 3109 3111 3111 3111 3112 3114 3114 3113 3112 3111 3111 3111 3112 3113 3114 3114 3114 3115 3113 3110 3106 3103 3101 3100 3102 3107 3110 3109 3110 3111 3112 3114 3114 3113 3113 3112 3112 3114 3114 3116 3117 3109 3105 3109 3108 3107 3108 3108 3109 3111 3110 3110 3111 3113 3116 3120 3122 3124
3105 3105 3106 3108 3107 3106 3105 3106 3107 3107 3107 3108 3108 3107 3107 3106 3106 3106 3106 3106 3106 3107 3108 3108 3108 3109 3108 3108 3110 3110 3110 3111 3111 3111 3112 3114 3113 3111 3110 3110 3112 3113 3114 3115 3115 3114 3115 3116 3114 3112 3110 3106 3102 3101 3101 3103 3105 3105 3106 3107 3108 3110 3110 3107 3107 3108 3110 3112 3112 3113 3113 3108 3105 3108 3109 3108 3107 3105 3106 3110 3112 3112 3112 3112 3113 3115 3119 3121
3105 3106 3107 3109 3108 3106 3106 3107 3107 3107 3107 3109 3109 3108 3107 3106 3105 3106 3107 3106 3107 3108 3108 3107 3109 3109 3109 3110 3111 3111 3112 3112 3112 3112 3111 3111 3111 3110 3109 3110 3112 3113 3115 3115 3114 3115 3116 3116 3116 3116 3116 3113 3109 3106 3105 3104 3104 3104 3105 3106 3106 3109 3109 3107 3107 3108 3109 3110 3111 3112 3111 3108 3107 3109 3110 3107 3103 3102 3105 3106 3107 3108 3109 3111 3110 3110 3115 3119
3106 3106 3108 3109 3108 3107 3107 3108 3107 3106 3107 3108 3109 3109 3109 3107 3107 3108 3108 3107 3108 3108 3108 3108 3110 3110 3110 3111 3112 3112 3113 3113 3113 3112 3111 3110 3110 3109 3110 3110 3111 3112 3113 3113 3114 3115 3116 3115 3115 3116 3116 3114 3111 3108 3108 3109 3109 3106 3104 3104 3105 3108 3110 3110 3109 3110 3111 3110 3110 3111 3109 3107 3107 3109 3110 3107 3104 3104 3105 3105 3106 3106 3106 3107 3106 3105 3109 3115
3106 3106 3108 3108 3107 3107 3108 3107 3107 3107 3107 3108 3108 3109 3110 3110 3109 3109 3109 3109 3109 3109 3109 3110 3111 3111 3111 3112 3113 3113 3113 3113 3112 3112 3112 3112 3111 3111 3110 3110 3111 3111 3112 3112 3113 3115 3115 3114 3113 3114 3113 3112 3111 3109 3109 3110 3110 3108 3105 3103 3104 3107 3109 3110 3110 3111 3112 3110 3109 3108 3107 3107 3107 3109 3110 3109 3107 3107 3105 3104 3106 3107 3105 3104 3103 3103 3107 3112
3106 3107 3108 3108 3108 3109 3109 3108 3108 3108 3108 3108 3109 3109 3110 3110 3110 3110 3110 3111 3110 3110 3111 3112 3112 3112 3113 3113 3112 3113 3112 3112 3112 3112 3112 3112 3111 3111 3110 3110 3110 3111 3111 3111 3112 3113 3113 3112 3112 3112 3111 3110 3110 3110 3110 3110 3110 3109 3106 3103 3104 3107 3108 3109 3110 3111 3112 3111 3109 3108 3107 3107 3108 3110 3110 3109 3108 3108 3107 3106 3106 3106 3103 3102 3101 3103 3107 3110
3107 3108 3108 3108 3109 3109 3109 3109 3110 3109 3108 3109 3109 3109 3110 3111 3111 3111 3111 3112 3112 3111 3111 3112 3112 3112 3113 3113 3112 3112 3112 3112 3112 3112 3112 3112 3112 3111 3110 3110 3110 3110 3110 3110 3111 3112 3111 3110 3110 3111 3109 3108 3109 3109 3109 3109 3108 3106 3105 3104 3104 3105 3107 3108 3109 3111 3111 3109 3108 3109 3108 3107 3109 3110 3108 3108 3108 3108 3107 3106 3106 3105 3102 3102 3101 3103 3107 3109
3107 3108 3108 3108 3109 3110 3110 3110 3111 3110 3109 3109 3110 3110 3110 3111 3111 3111 3112 3112 3112 3111 3111 3112 3112 3112 3112 3112 3112 3112 3112 3112 3112 3112 3112 3112 3111 3110 3110 3109 3109 3109 3109 3109 3110 3110 3110 3109 3109 3109 3108 3106 3107 3107 3108 3108 3107 3105 3104 3103 3102 3103 3106 3107 3108 3110 3110 3108 3107 3109 3107 3106 3109 3109 3105 3106 3107 3106 3104 3104 3105 3104 3103 3103 3103 3103 3106 3109
3108 3108 3108 3108 3109 3110 3110 3111 3111 3110 3109 3110 3110 3110 3111 3111 3112 3111 3111 3111 3112 3112 3112 3113 3112 3112 3111 3111 3111 3111 3111 3111 3110 3110 3110 3110 3110 3110 3109 3109 3109 3109 3109 3110 3109 3109 3109 3108 3108 3108 3107 3104 3105 3107 3106 3106 3106 3103 3101 3102 3102 3102 3103 3105 3107 3108 3109 3108 3107 3107 3106 3107 3108 3107 3104 3103 3104 3103 3101 3102 3105 3105 3104 3105 3105 3105 3106 3109
3109 3109 3108 3108 3108 3111 3111 3110 3110 3110 3110 3110 3111 3111 3111 3112 3112 3111 3110 3111 3111 3111 3112 3112 3111 3111 3110 3110 3110 3110 3109 3109 3109 3109 3108 3108 3108 3107 3107 3107 3108 3108 3108 3109 3108 3108 3108 3107 3107 3108 3106 3103 3104 3106 3105 3105 3104 3100 3099 3101 3102 3101 3102 3104 3105 3105 3107 3107 3105 3105 3106 3105 3105 3104 3102 3101 3101 3100 3100 3101 3103 3104 3103 3104 3106 3107 3108 3110